Lid_Strength_Index
7 8 4 4 2 2 1 1 0 1 0 -0 0 0 -0 -0 -0 -0 0 -0 -0 -0 0 -0 0 -1 0 -1 -1 -0 0 0
6 8 7 6 2 2 1 1 1 1 0 0 0 0 -0 0 -0 -0 -0 0 0 1 0 0 0 0 0 1 0 0 0 0
7 7 8 7 3 2 1 0 1 1 0 0 0 0 0 -0 -0 -0 -0 0 1 1 1 0 0 0 0 0 1 0 1 1
7 7 8 7 5 2 1 1 1 1 0 1 1 1 0 0 -0 -0 -0 0 1 1 1 0 0 0 0 0 0 0 0 0
6 6 7 6 6 2 3 2 1 1 0 0 1 0 0 1 1 0 0 0 1 1 2 0 0 1 0 1 0 0 0 0
4 4 3 2 3 2 1 1 2 3 1 0 0 0 0 0 0 0 0 0 -0 0 1 0 1 1 0 1 1 1 1 1
4 3 2 3 2 2 3 2 4 3 1 0 1 0 0 1 0 0 0 0 0 0 1 1 1 1 1 1 1 1 2 2
4 3 2 2 2 2 2 1 1 1 1 1 1 1 1 0 1 1 0 0 0 0 1 1 0 1 1 1 1 1 2 1
4 3 3 3 2 2 2 2 2 2 2 2 2 2 1 1 1 1 1 0 0 1 1 2 1 1 1 1 1 2 2 1
5 4 3 3 4 2 2 2 2 2 1 1 1 1 1 1 1 1 1 0 0 0 1 1 1 1 1 1 1 2 2 1
5 4 4 3 3 3 3 2 2 2 2 1 2 1 2 2 1 1 1 1 1 1 1 1 1 1 1 1 1 2 3 2
5 4 4 4 3 2 3 2 2 2 2 2 2 3 3 2 2 1 1 1 1 1 1 1 1 1 1 1 1 1 2 3
5 4 3 3 3 3 2 2 2 1 1 2 2 3 2 2 2 2 1 1 0 1 1 1 1 1 1 1 1 1 1 2
6 5 5 4 4 3 3 2 2 2 2 2 2 3 2 3 2 2 2 1 1 1 0 1 1 1 1 1 1 1 1 1
7 7 6 5 5 5 3 4 3 2 2 2 2 2 2 3 2 2 2 2 2 1 1 1 1 0 1 1 1 1 1 2
7 6 6 5 4 3 3 3 3 3 2 2 2 2 2 2 2 2 2 2 1 1 1 1 1 1 0 1 1 1 1 1
5 6 5 6 6 4 3 3 3 3 2 3 2 2 2 2 2 1 1 1 1 1 1 1 1 1 1 1 1 1 1 1
6 6 6 6 6 6 6 5 3 3 2 2 2 2 2 2 2 2 1 1 1 1 1 1 1 1 1 1 1 1 1 1
7 6 6 7 6 6 6 5 5 5 5 4 3 2 2 2 2 2 1 1 1 1 1 1 1 1 1 1 1 1 2 2
7 8 7 7 8 7 7 7 7 6 5 5 5 3 2 2 2 2 1 1 1 1 1 1 1 1 5 3 2 1 3 2